User: anonymous   Login
Location: NJAA Observatory
(40.6819°N, 74.8979°W)
Time: 00:59:35
(UTC-05:00)
Language:

ALOS - Orbit

View from above orbital plane
View from above orbital plane
View from above satellite
View from above satellite

Ground track
Ground track

The orbit data is extracted from the following two-line orbital elements,

1 28931U 06002A   17058.86403959  .00000138  00000-0  35958-4 0  9992
2 28931  97.8558  91.6263 0000893  50.3630 309.7654 14.62316851591489
Epoch (UTC): 27 February 2017 20:44:13
Eccentricity: 0.0000893
inclination: 97.8558°
perigee height: 685 km
apogee height: 686 km
right ascension of ascending node: 91.6263°
argument of perigee: 50.3630°
revolutions per day: 14.62316851
mean anomaly at epoch: 309.7654°
orbit number at epoch: 59148

The dashed part of the orbit path shows where the satellite is in the earth's shadow,  

DLR